Regional Weather Roundup
Issued by NWS Charleston, WV

Home | Current Version | Previous Version | Graphics & Text | Print | Product List | Glossary On
Versions: 1 2 3 4 5 6 7 8 9 10 11 12 13 14 15 16 17 18 19 20 21 22 23 24 25 26 27 28 29 30 31 32 33 34 35 36 37 38 39 40 41 42 43 44 45 46 47 48 49 50
202
ASUS41 KRLX 131710
RWRRLX
West Virginia Regional Weather Roundup
National Weather Service Charleston WV
1200 PM EST SAT FEB 13 2016

Note: "fair" indicates few or no clouds below 12,000 feet with no
significant weather and/or obstructions to visibility.

WVZ003-131800-
Northern Panhandle of West Virginia

CITY           SKY/WX    TMP DP  RH WIND       PRES   REMARKS
WHEELING       CLOUDY    10  -7  46 W16G26    30.37R WCI  -7
$$

WVZ009-131800-
Northwest West Virginia

CITY           SKY/WX    TMP DP  RH WIND       PRES   REMARKS
PARKERSBURG      N/A     13  -7  40 NW12G18   30.50R WCI  -1
$$

WVZ006-131800-
Western West Virginia

CITY           SKY/WX    TMP DP  RH WIND       PRES   REMARKS
HUNTINGTON     CLOUDY    18   1  47 NW9G21    30.51R WCI   7
$$

WVZ015-131800-
West Central West Virginia

CITY           SKY/WX    TMP DP  RH WIND       PRES   REMARKS
CHARLESTON     PTSUNNY   16  -4  41 W13G26    30.46R WCI   2
$$

WVZ022-031-131800-
North Central West Virginia

CITY           SKY/WX    TMP DP  RH WIND       PRES   REMARKS
CLARKSBURG     CLOUDY    15  -4  42 W12G20    30.37R WCI   2
MORGANTOWN     NOT AVBL
$$

WVZ025-035-042-045-131800-
Southern West Virginia

CITY           SKY/WX    TMP DP  RH WIND       PRES   REMARKS
BECKLEY        PTSUNNY   11  -1  58 NW20G32   30.27S WCI  -7
LOGAN          LGT SNOW  14   3  62 NW10G18   30.39S WCI   1
BLUEFIELD      PTSUNNY   10  -4  53 NW12G25   30.23S WCI  -5
LEWISBURG      CLOUDY    16  -1  47 W13G22    30.24S WCI   3
$$

WVZ047-131800-
Northern Mountains of West Virginia

CITY           SKY/WX    TMP DP  RH WIND       PRES   REMARKS
ELKINS         CLOUDY     9  -6  50 NW16G22   30.27R WCI  -8
$$

WVZ052-131800-
Eastern Panhandle of West Virginia

CITY           SKY/WX    TMP DP  RH WIND       PRES   REMARKS
MARTINSBURG    PTSUNNY   16  -4  41 NW18G32   30.28R WCI   0
PETERSBURG     CLOUDY    15  -3  44 NW15G21   30.32R WCI   0
$$




USA.gov is the U.S. government's official web portal to all federal, state and local government web resources and services.